[Date Prev][Date Next][Thread Prev][Thread Next] - [Date Index][Thread Index][Author Index]
2 Line ISS Keps 2-8
- Subject: [sarex] 2 Line ISS Keps 2-8
- From: "Dave Larsen Ph.D." <doc@xxxxxxxxxxx>
- Date: Sat, 8 Feb 2003 00:36:07 -0800
ISS
1 25544U 98067A 03039.20933225 .00028058 00000-0 33898-3 0 6658
2 25544 51.6353 308.0219 0005683 124.8266 11.6978 15.60483654240885
----
Via the sarex mailing list at AMSAT.ORG courtesy of AMSAT-NA.
To unsubscribe, send "unsubscribe sarex" to Majordomo@amsat.org
AMSAT Home